Wheeler AAF, HI

8:29 AM HST on December 12, 2017 (GMT -1000)
Wheeler Army Air Field

Weather History for PHHI - June, 2013

Change the Weather History Date:

Saturday, June 29, 2013

  Actual Average Record
Temperature  
Mean Temperature 74 °F -  
Max Temperature 80 °F 79 °F 86 °F (2008)
Min Temperature 67 °F 66 °F 63 °F (2011)
Cooling Degree Days 8    
Growing Degree Days 24 (Base 50)    
Moisture  
Dew Point 65 °F    
Average Humidity 83    
Maximum Humidity 95    
Minimum Humidity 55    
Precipitation  
Precipitation 0.08 in - - ()
Sea Level Pressure  
Sea Level Pressure 29.96 in    
Wind  
Wind Speed 3 mph (NNE)    
Max Wind Speed 17 mph    
Max Gust Speed 20 mph    
Visibility 10 miles    
Events Rain    
Averages and records for this station are not official NWS values.
T = Trace of Precipitation, MM = Missing Value Source: NWS Daily Summary

Daily Weather History Graph

Daily Weather History Graph

Search for Another Location

Airport or City:

Trip Planner

Search our weather history database for the weather conditions in past years. The results will help you decide how hot, cold, wet, or windy it might be!

Date:

Astronomy

Jun. 29, 2013 Rise Set
Actual Time 5:52 AM HST 7:18 PM HST
Civil Twilight 5:28 AM HST 7:43 PM HST
Nautical Twilight 4:58 AM HST 8:12 PM HST
Astronomical Twilight 4:27 AM HST 8:43 PM HST
Moon No Moon Rise 12:20 PM HST (6/29)
Length of Visible Light 14h 15m
Length of Day
13h 25m
Waning Gibbous, 53% of the Moon is Illuminated
Jun 29
Waning Gibbous
Jun 29
Last Quarter
Jul 7
New
Jul 15
First Quarter
Jul 22
Full

Hourly Weather History & Observations

Time (HST) Temp. Heat Index Dew Point Humidity Pressure Visibility Wind Dir Wind Speed Gust Speed Precip Events Conditions
12:55 AM 70.9 °F - 63.9 °F 78% 29.97 in 10.0 mi Calm Calm - N/A   Clear
1:55 AM 68.2 °F - 63.1 °F 84% 29.95 in 10.0 mi West 4.6 mph - N/A   Partly Cloudy
2:08 AM 68.0 °F - 64.4 °F 88% 29.95 in 10.0 mi West 3.5 mph - N/A   Light Drizzle
2:25 AM 68.0 °F - 64.4 °F 88% 29.95 in 10.0 mi Calm Calm - N/A   Overcast
2:55 AM 67.3 °F - 64.6 °F 91% 29.94 in 10.0 mi WNW 5.8 mph - 0.00 in   Mostly Cloudy
3:04 AM 68.0 °F - 64.4 °F 88% 29.94 in 10.0 mi West 3.5 mph - N/A   Mostly Cloudy
3:06 AM 68.0 °F - 64.4 °F 88% 29.94 in 8.0 mi West 3.5 mph - N/A Rain Light Rain
3:09 AM 68.0 °F - 64.4 °F 88% 29.94 in 6.0 mi Calm Calm - N/A Rain Light Rain
3:11 AM 68.0 °F - 64.4 °F 88% 29.94 in 5.0 mi Calm Calm - N/A Rain Light Rain
3:31 AM 68.0 °F - 64.4 °F 88% 29.94 in 10.0 mi WNW 3.5 mph - N/A   Light Drizzle
3:47 AM 68.0 °F - 66.2 °F 94% 29.94 in 10.0 mi Calm Calm - N/A   Mostly Cloudy
3:54 AM 68.0 °F - 66.2 °F 94% 29.94 in 10.0 mi Calm Calm - N/A   Light Drizzle
3:55 AM 67.8 °F - 65.8 °F 93% 29.94 in 10.0 mi Calm Calm - 0.04 in   Light Drizzle
3:56 AM 68.0 °F - 66.2 °F 94% 29.94 in 10.0 mi Calm Calm - N/A   Light Drizzle
4:07 AM 68.0 °F - 66.2 °F 94% 29.94 in 8.0 mi Calm Calm - N/A   Light Drizzle
4:13 AM 68.0 °F - 66.2 °F 94% 29.94 in 7.0 mi Calm Calm - N/A   Light Drizzle
4:19 AM 68.0 °F - 66.2 °F 94% 29.94 in 8.0 mi Calm Calm - N/A   Light Drizzle
4:23 AM 68.0 °F - 66.2 °F 94% 29.94 in 10.0 mi Calm Calm - N/A   Scattered Clouds
4:35 AM 68.0 °F - 66.2 °F 94% 29.95 in 9.0 mi Calm Calm - N/A   Drizzle
4:46 AM 68.0 °F - 66.2 °F 94% 29.94 in 10.0 mi Calm Calm - N/A   Scattered Clouds
4:55 AM 68.0 °F - 66.4 °F 95% 29.94 in 10.0 mi Calm Calm - 0.00 in   Mostly Cloudy
5:20 AM 68.0 °F - 66.2 °F 94% 29.95 in 10.0 mi Calm Calm - N/A   Light Drizzle
5:32 AM 68.0 °F - 66.2 °F 94% 29.95 in 10.0 mi NE 4.6 mph - N/A   Partly Cloudy
5:55 AM 68.5 °F - 66.4 °F 93% 29.95 in 10.0 mi NW 3.5 mph - 0.00 in   Clear
6:04 AM 68.0 °F - 66.2 °F 94% 29.96 in 10.0 mi NW 4.6 mph - N/A   Light Drizzle
6:55 AM 68.4 °F - 66.2 °F 93% 29.97 in 9.0 mi Calm Calm - 0.04 in   Light Drizzle
6:56 AM 68.0 °F - 66.2 °F 94% 29.98 in 10.0 mi Calm Calm - N/A   Scattered Clouds
7:55 AM 71.1 °F - 66.6 °F 86% 29.98 in 10.0 mi Calm Calm - N/A   Scattered Clouds
8:55 AM 74.3 °F - 65.5 °F 74% 29.98 in 10.0 mi ENE 9.2 mph - N/A   Partly Cloudy
9:55 AM 76.6 °F - 64.9 °F 67% 29.98 in 10.0 mi ENE 8.1 mph - N/A   Scattered Clouds
10:55 AM 77.5 °F - 63.5 °F 62% 29.98 in 10.0 mi ENE 11.5 mph - N/A   Scattered Clouds
11:55 AM 79.7 °F - 62.4 °F 55% 29.96 in 10.0 mi East 12.7 mph - N/A   Clear
12:55 PM 80.1 °F 81.5 °F 63.0 °F 56% 29.95 in 10.0 mi East 11.5 mph 19.6 mph N/A   Mostly Cloudy
1:55 PM 79.2 °F - 63.9 °F 59% 29.95 in 10.0 mi ENE 13.8 mph - N/A   Mostly Cloudy
2:53 PM 77.0 °F - 66.2 °F 69% 29.94 in 10.0 mi ENE 16.1 mph - N/A   Mostly Cloudy
2:55 PM 77.5 °F - 66.0 °F 68% 29.94 in 10.0 mi East 16.1 mph - N/A   Mostly Cloudy
3:55 PM 79.2 °F - 64.6 °F 61% 29.94 in 10.0 mi ENE 17.3 mph - N/A   Clear
4:55 PM 78.3 °F - 64.9 °F 63% 29.95 in 10.0 mi East 12.7 mph - N/A   Mostly Cloudy
5:55 PM 75.6 °F - 65.5 °F 71% 29.96 in 10.0 mi ENE 9.2 mph - N/A   Scattered Clouds
6:55 PM 73.4 °F - 64.6 °F 74% 29.97 in 10.0 mi NNE 4.6 mph - N/A   Mostly Cloudy
7:55 PM 72.1 °F - 64.8 °F 78% 29.99 in 10.0 mi Calm Calm - N/A   Clear
8:55 PM 71.1 °F - 64.4 °F 79% 30.00 in 10.0 mi Calm Calm - N/A   Clear
9:55 PM 67.6 °F - 63.3 °F 86% 30.02 in 10.0 mi WNW 3.5 mph - N/A   Clear
10:55 PM 67.5 °F - 63.5 °F 87% 30.02 in 10.0 mi Calm Calm - N/A   Clear
11:55 PM 67.3 °F - 63.5 °F 88% 30.01 in 10.0 mi Calm Calm - N/A   Clear